[[{"header":{"parameterUnit":"m.s-1","parameterCategory":1,"la1":30.2991,"la2":30.254,"lo1":-89.0895,"lo2":-89.0444,"dy":0.0017,"dx":0.0017,"nx":28,"ny":28,"refTime":"2024-06-27T03:00:00:Z","depth":0,"parameterNumber":2,"parameterNumberName":"U-component_of_WINDS"},"data":[0,0,0,0,0,0,0,0,0,0,0,0,0,0,0,0,0,0,0,0,0,0,0,0,0,0,0,0,0,0,0,0,0,0,0,0,0,0,0,0,0,0,0,0,0,0,0,0,0,0,0,0,0,0,0,0,0,0,5.064,5.0642,0,5.0759,5.076,5.0761,5.0689,5.0686,5.0683,5.0679,5.0804,5.081,5.0817,0,0,0,0,0,0,0,0,0,0,0,0,0,5.0355,5.036,5.064,5.0642,5.0643,5.0759,5.076,5.0762,5.069,5.0686,5.0682,5.0678,5.0802,5.0809,5.0817,0,0,0,0,0,0,0,0,0,0,0,0,0,5.0477,5.0362,5.064,5.0621,5.0621,5.0758,5.076,5.0762,5.0691,5.0686,5.0681,5.0676,5.0799,5.0809,5.0818,5.0982,0,0,5.0848,5.0852,0,0,0,0,0,0,0,0,5.047,5.0487,5.0622,5.0623,5.0622,5.0704,5.0705,5.0836,5.0692,5.0664,5.0679,5.0673,5.0775,5.0786,5.082,5.0988,5.0993,5.0849,5.0855,5.0859,5.0862,0,0,0,0,0,0,0,5.0462,5.0482,5.0687,5.0624,5.0624,5.0608,5.0619,5.073,5.0747,5.0666,5.0661,5.0676,5.0774,5.0811,5.0822,5.0995,5.0849,5.0857,5.0863,5.0867,5.1303,5.1309,0,0,0,0,0,0,5.0454,5.0475,5.0683,5.0691,5.0532,5.0617,5.063,5.0683,5.0746,5.075,5.0681,5.0672,5.0797,5.0811,5.0827,5.1022,5.0859,5.0868,5.0874,5.1298,5.1305,5.1311,0,0,0,0,0,0,5.0448,5.0473,5.0679,5.0582,5.0606,5.0628,5.0688,5.0688,5.0725,5.0756,5.076,5.0715,5.0793,5.0813,5.0944,5.1026,5.0873,5.0882,5.1291,5.13,5.1308,5.1415,0,0,0,0,0,0,5.044,5.0472,5.0533,5.0584,5.0612,5.0793,5.0693,5.0694,5.0741,5.0732,5.0789,5.0794,5.0791,5.093,5.0953,5.1036,5.0889,5.1284,5.1295,5.1305,5.1404,5.1426,5.1445,0,0,0,0,0,5.043,5.0559,5.0537,5.0562,5.0689,5.0798,5.0814,5.0807,5.0748,5.0811,5.0831,5.0792,5.1013,5.0944,5.097,5.1057,5.1279,5.1292,5.1304,5.1395,5.1422,5.1445,0,0,0,0,0,0,5.0519,5.0566,5.0541,5.069,5.074,5.0785,5.0864,5.0835,5.0904,5.0893,5.0882,5.0895,5.1032,5.1058,5.0979,5.1219,5.1137,5.1156,5.1197,5.1223,5.1243,5.1233,5.0897,0,0,0,0,0,5.0556,5.0639,5.0676,5.0803,5.083,5.0843,5.089,5.088,5.0932,5.0954,5.0984,5.1037,5.1118,5.1172,5.1248,5.1408,5.142,5.1481,5.1501,5.1518,5.1534,5.1621,5.1649,5.1353,5.1353,5.1353,0,0,5.0633,5.0668,5.0722,5.0822,5.086,5.0948,5.0861,5.0958,5.1023,5.0968,5.1093,5.1118,5.1176,5.1323,5.1388,5.1348,5.1619,5.1534,5.1547,5.1555,5.1637,5.1665,5.169,5.1362,5.136,5.1359,0,0,5.0817,5.0853,5.0963,5.1003,5.1061,5.1069,5.1096,5.1146,5.1159,5.1284,5.1246,5.1324,5.1464,5.1507,5.1548,5.175,5.1717,5.1776,5.1882,5.1967,5.199,5.201,5.2083,5.2109,5.1792,5.1792,5.1792,0,5.0906,5.1035,5.1024,5.1123,5.1168,5.1123,5.1235,5.1275,5.1356,5.1389,5.1342,5.1517,5.1554,5.171,5.1759,5.1793,5.1824,5.1769,5.1987,5.2008,5.2027,5.2096,5.2123,5.1799,5.1798,5.1797,5.1797,0,5.1141,5.1231,5.1314,5.1392,5.1447,5.1552,5.1558,5.1616,5.1601,5.1614,5.1743,5.1785,5.1869,5.1906,5.1893,5.2061,5.2034,5.1988,5.1905,5.2062,5.2126,5.2153,5.1808,5.1806,5.1804,5.1802,0,0,5.1384,5.1455,5.1485,5.152,5.1582,5.1652,5.1756,5.1837,5.1887,5.1945,5.2032,5.2152,5.211,5.2156,5.2148,5.2223,5.238,5.2167,5.2169,5.2205,5.2568,5.2601,5.2632,5.2359,5.2364,5.2368,5.2563,0,5.1572,5.1752,5.1745,5.1914,5.1998,5.1956,5.2046,5.2095,5.211,5.2184,5.2202,5.2287,5.2225,5.2252,5.2324,5.2346,5.2453,5.2332,5.2441,5.2444,5.2426,5.2666,5.2702,5.2883,5.2588,5.2592,5.2595,0,5.1816,5.188,5.2057,5.2106,5.2141,5.2223,5.2297,5.2368,5.2423,5.2429,5.2481,5.2461,5.2567,5.2482,5.2629,5.2547,5.2591,5.2609,5.2615,5.2625,5.2529,5.2681,5.2941,5.2968,5.2635,5.2631,5.2629,0,5.1975,5.2107,5.2229,5.2261,5.2321,5.238,5.2408,5.2457,5.2507,5.2572,5.2605,5.2682,5.2725,5.2786,5.2788,5.2726,5.2937,5.2852,5.2946,5.2946,5.2991,5.2989,5.3262,5.3021,5.3021,5.302,5.302,0,5.2186,5.2295,5.2302,5.2377,5.2499,5.2491,5.2613,5.2635,5.268,5.2759,5.2729,5.2805,5.2803,5.2881,5.2883,5.3005,5.3024,5.3033,5.3032,5.3035,5.3034,5.3064,5.3051,5.3027,5.3026,5.3024,5.3023,0,5.2384,5.2393,5.2524,5.257,5.2585,5.2673,5.2713,5.2785,5.2798,5.29,5.2923,5.2944,5.3033,5.3042,5.3146,5.3148,5.3295,5.3281,5.3276,5.3274,5.3367,5.3358,5.3668,5.3709,5.3442,5.3445,5.3447,0,5.2518,5.2601,5.2657,5.2707,5.2738,5.2821,5.2871,5.2867,5.2921,5.2989,5.3054,5.314,5.3209,5.3355,5.338,5.346,5.3447,5.3551,5.3459,5.346,5.3449,5.3443,5.3452,5.3568,5.3571,5.3574,5.3575,0,5.2754,5.2754,5.2827,5.2903,5.2964,5.3023,5.3078,5.3122,5.3125,5.3187,5.3278,5.3332,5.3438,5.3525,5.3603,5.3633,5.3606,5.3604,5.363,5.3634,5.3628,5.3632,5.3324,5.3597,5.3595,5.3593,5.3592,5.3591,5.2924,5.2996,5.3047,5.3129,5.317,5.3223,5.3293,5.3315,5.339,5.3475,5.3469,5.3569,5.3622,5.3725,5.3761,5.384,5.3806,5.3843,5.3853,5.3862,5.3871,5.3616,5.3855,5.3854,5.3854,5.3853,5.3853,0,5.3159,5.3189,5.3265,5.3343,5.3409,5.3376,5.3436,5.3493,5.3582,5.3633,5.3701,5.3806,5.389,5.3922,5.4004,5.4061,5.4051,5.4083,5.4079,5.4086,5.3898,5.3867,5.409,5.409,5.409,5.409,5.409,5.409,5.3289,5.3409,5.3415,5.3556,5.3585,5.3683,5.372,5.3769,5.3809,5.3927,5.3996,5.4016,5.406,5.4145,5.4221,5.4228,5.426,5.4298,5.43,5.4123,5.4099,5.4076,5.4047,5.4305,5.4305,5.4481,5.4483,5.4484]},{"header":{"parameterUnit":"m.s-1","parameterCategory":1,"la1":30.2991,"la2":30.254,"lo1":-89.0895,"lo2":-89.0444,"dy":0.0017,"dx":0.0017,"nx":28,"ny":28,"refTime":"2024-06-27T03:00:00:Z","depth":0,"parameterNumber":3,"parameterNumberName":"V-component_of_WINDS"},"data":[0,0,0,0,0,0,0,0,0,0,0,0,0,0,0,0,0,0,0,0,0,0,0,0,0,0,0,0,0,0,0,0,0,0,0,0,0,0,0,0,0,0,0,0,0,0,0,0,0,0,0,0,0,0,0,0,0,0,3.4614,3.4614,0,3.4567,3.4567,3.4566,3.4532,3.4532,3.4531,3.4531,3.448,3.4479,3.4478,0,0,0,0,0,0,0,0,0,0,0,0,0,3.4672,3.4671,3.4615,3.4614,3.4613,3.4568,3.4567,3.4566,3.4532,3.4532,3.4531,3.4531,3.4481,3.4479,3.4478,0,0,0,0,0,0,0,0,0,0,0,0,0,3.4638,3.467,3.4615,3.4591,3.4588,3.4568,3.4567,3.4566,3.4532,3.4532,3.4531,3.4531,3.4481,3.448,3.4478,3.4476,0,0,3.4473,3.4472,0,0,0,0,0,0,0,0,3.464,3.4636,3.4595,3.4592,3.459,3.4555,3.4568,3.4536,3.4532,3.4553,3.4531,3.4531,3.4505,3.4502,3.4494,3.4474,3.4472,3.4473,3.4472,3.4471,3.4471,0,0,0,0,0,0,0,3.4642,3.4638,3.4596,3.4594,3.4591,3.4581,3.4576,3.4562,3.4532,3.4551,3.4549,3.4544,3.4504,3.4495,3.4492,3.4471,3.4473,3.4471,3.447,3.447,3.4445,3.4446,0,0,0,0,0,0,3.4649,3.464,3.4597,3.4594,3.4614,3.4581,3.4575,3.4567,3.4532,3.4527,3.4544,3.4543,3.4498,3.4494,3.449,3.4485,3.4471,3.447,3.4469,3.4445,3.4446,3.4446,0,0,0,0,0,0,3.465,3.4645,3.4599,3.4616,3.461,3.458,3.4571,3.4566,3.4557,3.4527,3.4521,3.4541,3.4498,3.4493,3.448,3.4483,3.4469,3.4467,3.4445,3.4445,3.4446,3.4475,0,0,0,0,0,0,3.4652,3.4646,3.4646,3.4617,3.4609,3.4591,3.4571,3.4565,3.4555,3.4552,3.4523,3.4517,3.4497,3.4483,3.4478,3.448,3.4466,3.4444,3.4445,3.4446,3.4474,3.4476,3.4479,0,0,0,0,0,3.4654,3.4656,3.4646,3.4641,3.4609,3.4591,3.4586,3.4564,3.4556,3.4554,3.4535,3.4518,3.4483,3.4482,3.4476,3.4478,3.4444,3.4445,3.4446,3.4472,3.4476,3.4479,0,0,0,0,0,0,3.4685,3.4652,3.464,3.4633,3.4615,3.4585,3.4583,3.4568,3.4552,3.455,3.4522,3.4515,3.4505,3.449,3.4489,3.4474,3.4461,3.4461,3.4484,3.4487,3.4489,3.4493,3.4465,0,0,0,0,0,3.4692,3.4681,3.4652,3.4648,3.464,3.4613,3.4605,3.4589,3.4569,3.4561,3.454,3.452,3.4505,3.4495,3.4479,3.4471,3.4464,3.447,3.4473,3.4475,3.4475,3.4468,3.447,3.4448,3.4448,3.4448,0,0,3.4704,3.4684,3.4679,3.4654,3.4638,3.4626,3.4607,3.4596,3.4587,3.4559,3.4545,3.4529,3.4505,3.4495,3.4489,3.4482,3.4479,3.4476,3.4478,3.4476,3.4469,3.4471,3.4473,3.4449,3.4449,3.4449,0,0,3.4721,3.4705,3.47,3.4685,3.4661,3.4643,3.4642,3.4614,3.4603,3.4589,3.4567,3.4555,3.4529,3.4513,3.4501,3.451,3.4494,3.4506,3.4519,3.4513,3.4514,3.4516,3.4518,3.4519,3.4506,3.4506,3.4506,0,3.4739,3.4722,3.4699,3.4689,3.4677,3.4652,3.4646,3.4632,3.4604,3.4596,3.4589,3.4555,3.4537,3.4522,3.4524,3.4516,3.4512,3.4509,3.4516,3.4517,3.4518,3.452,3.4521,3.4507,3.4507,3.4507,3.4507,0,3.4744,3.4733,3.4731,3.4705,3.4694,3.4686,3.466,3.4651,3.4636,3.4619,3.4604,3.4582,3.456,3.4555,3.4541,3.4537,3.4533,3.4522,3.4509,3.4522,3.4523,3.4523,3.451,3.4509,3.4509,3.4508,0,0,3.4779,3.4741,3.4741,3.4728,3.47,3.469,3.468,3.466,3.4652,3.4633,3.4623,3.4601,3.459,3.4576,3.4559,3.4554,3.4561,3.4543,3.4541,3.4546,3.4554,3.4562,3.4563,3.455,3.455,3.455,3.4555,0,3.4791,3.4772,3.4751,3.4739,3.4727,3.4703,3.4694,3.4675,3.4658,3.4645,3.4626,3.461,3.4597,3.4589,3.4582,3.4562,3.4562,3.4561,3.4539,3.4538,3.4545,3.4564,3.4573,3.4579,3.4556,3.4556,3.4556,0,3.4801,3.4785,3.4772,3.4744,3.4738,3.4731,3.471,3.4698,3.4675,3.4663,3.4648,3.4629,3.4616,3.4605,3.4585,3.4585,3.4575,3.4563,3.4562,3.4559,3.4547,3.456,3.458,3.4581,3.4556,3.4556,3.4556,0,3.4826,3.4801,3.4789,3.478,3.4747,3.4742,3.4728,3.4706,3.4694,3.4675,3.4667,3.4647,3.4636,3.462,3.4596,3.459,3.4578,3.4565,3.4566,3.4567,3.4564,3.4564,3.4582,3.4559,3.4559,3.4559,3.4559,0,3.484,3.4833,3.48,3.4793,3.4784,3.4759,3.475,3.4734,3.4714,3.4702,3.468,3.4669,3.4639,3.4624,3.4605,3.459,3.4585,3.4574,3.4569,3.4576,3.4577,3.4568,3.4566,3.4559,3.4559,3.4559,3.4559,0,3.4867,3.4844,3.483,3.4801,3.4793,3.4788,3.4762,3.4753,3.4735,3.4721,3.4716,3.4687,3.4668,3.4643,3.4616,3.4603,3.4591,3.4583,3.4598,3.4595,3.4597,3.4597,3.4609,3.4609,3.4587,3.4587,3.4587,0,3.4877,3.4871,3.4841,3.4832,3.4819,3.4805,3.4793,3.4768,3.4756,3.473,3.4724,3.4704,3.4686,3.4657,3.4633,3.4612,3.4603,3.4609,3.46,3.4606,3.4601,3.4602,3.46,3.4611,3.4611,3.4611,3.4612,0,3.4896,3.4885,3.487,3.4851,3.4838,3.4821,3.4803,3.4797,3.4768,3.4756,3.4737,3.4723,3.4696,3.4675,3.4651,3.4635,3.4618,3.4615,3.4614,3.462,3.4628,3.4623,3.4603,3.4614,3.4614,3.4614,3.4614,3.4614,3.4913,3.4907,3.4884,3.4868,3.4852,3.4836,3.4826,3.4807,3.4791,3.4768,3.4753,3.4735,3.4711,3.4676,3.4661,3.4645,3.4638,3.4637,3.4636,3.4636,3.4638,3.4632,3.464,3.464,3.464,3.464,3.464,0,3.4931,3.4915,3.4901,3.4877,3.4863,3.485,3.4829,3.4818,3.4802,3.4782,3.4765,3.4743,3.4722,3.4697,3.4674,3.4666,3.4658,3.4661,3.4661,3.4657,3.4645,3.4648,3.4668,3.4668,3.4668,3.4668,3.4668,3.4668,3.4938,3.4926,3.4912,3.4891,3.4875,3.4857,3.4846,3.4831,3.4814,3.479,3.4774,3.4758,3.4734,3.471,3.469,3.4683,3.4675,3.4681,3.4671,3.4661,3.4658,3.4656,3.4658,3.468,3.468,3.4684,3.4684,3.4684]}]]